Simultaneous Nadir Overpasses (SNOs) Predictions

Prediction of SNOs between GOES-16 and NOAA-19 Satellite Orbit:

Table of predicted SNOs for the next 14.0 days since TLE Epoch: 11/12/2022
Index Date Time (GOES-16) GOES-16 Lat,Lon NOAA-19 Lat,Lon Distance(km) Time Diff (sec)
1 11/13/2022 13:15:01 -0.05, -75.21 0.38, -76.95 199.66 80
2 11/14/2022 13:05:48 -0.05, -75.22 -0.34, -74.06 132.30 80
3 11/15/2022 12:51:13 -0.04, -75.22 -0.99, -71.16 464.34 80
4 11/17/2022 01:26:22 0.04, -75.21 -0.81, -78.94 425.31 80
5 11/18/2022 01:14:28 0.04, -75.22 -0.16, -76.04 92.88 80
6 11/19/2022 01:00:55 0.04, -75.24 0.50, -73.13 239.75 18
7 11/21/2022 13:22:51 -0.04, -75.30 0.56, -77.95 302.78 80
8 11/22/2022 13:08:17 -0.03, -75.31 -0.11, -75.05 30.28 80
9 11/23/2022 12:56:22 -0.03, -75.32 -0.79, -72.15 363.20 80
10 11/26/2022 01:19:37 0.02, -75.34 -0.36, -77.02 192.61 80
